START_TIME,STEP,MOV.,P1,t_acc.,E44,t_acc.,A3,t_acc.,P10,t_acc.
1981-08-24 00:00:24.330 ,6,0,1.,1.2,4.,1.2,0.,1.2,0.,1.2
1981-08-24 00:00:25.530 ,6,0,1.,1.2,8.,1.2,0.,1.2,0.,1.2
1981-08-24 00:00:26.730 ,6,0,0.,1.2,5.,1.2,0.,1.2,0.,1.2
1981-08-24 00:00:27.930 ,6,0,0.,1.2,6.,1.2,0.,1.2,0.,1.2
1981-08-24 00:00:29.130 ,6,0,0.,1.2,7.,1.2,0.,1.2,0.,1.2
1981-08-24 00:00:30.330 ,6,0,1.,1.2,5.,1.2,0.,1.2,0.,1.2
1981-08-24 00:00:31.530 ,6,0,0.,1.2,5.,1.2,0.,1.2,0.,1.2
1981-08-24 00:00:32.730 ,6,0,0.,1.2,8.,1.2,0.,1.2,0.,1.2
1981-08-24 00:00:33.930 ,6,0,0.,1.2,5.,1.2,0.,1.2,0.,1.2
1981-08-24 00:00:35.130 ,6,0,0.,1.2,9.,1.2,0.,1.2,0.,1.2
1981-08-24 00:00:36.330 ,6,0,0.,1.2,4.,1.2,0.,1.2,0.,1.2
1981-08-24 00:00:37.530 ,6,0,1.,1.2,3.,1.2,0.,1.2,0.,1.2
1981-08-24 00:00:38.730 ,6,0,0.,1.2,8.,1.2,0.,1.2,0.,1.2
1981-08-24 00:00:39.930 ,6,0,1.,1.2,2.,1.2,0.,1.2,0.,1.2
1981-08-24 00:00:41.130 ,6,0,0.,1.2,5.,1.2,0.,1.2,0.,1.2
1981-08-24 00:00:42.330 ,6,0,1.,1.2,3.,1.2,0.,1.2,0.,1.2
1981-08-24 00:00:43.530 ,6,0,0.,1.2,5.,1.2,0.,1.2,0.,1.2
1981-08-24 00:00:44.730 ,6,0,0.,1.2,9.,1.2,0.,1.2,0.,1.2
1981-08-24 00:00:45.930 ,6,0,0.,1.2,6.,1.2,0.,1.2,0.,1.2
1981-08-24 00:00:47.130 ,6,0,0.,1.2,6.,1.2,0.,1.2,0.,1.2
1981-08-24 00:00:48.330 ,7,0,0.,1.2,5.,1.2,0.,1.2,0.,1.2
1981-08-24 00:00:49.530 ,7,0,1.,1.2,4.,1.2,0.,1.2,0.,1.2
1981-08-24 00:00:50.730 ,7,0,0.,1.2,4.,1.2,0.,1.2,0.,1.2
1981-08-24 00:00:51.930 ,7,0,0.,1.2,6.,1.2,0.,1.2,0.,1.2
1981-08-24 00:00:53.130 ,7,0,0.,1.2,6.,1.2,0.,1.2,0.,1.2
1981-08-24 00:00:54.330 ,7,0,0.,1.2,512.,1.2,3.,1.2,0.,1.2
1981-08-24 00:00:55.530 ,7,0,0.,1.2,0.,1.2,2.,1.2,0.,1.2
1981-08-24 00:00:56.730 ,7,0,0.,1.2,4.,1.2,1.,1.2,0.,1.2
1981-08-24 00:00:57.930 ,7,0,0.,1.2,5.,1.2,5.,1.2,0.,1.2
1981-08-24 00:00:59.130 ,7,0,0.,1.2,6.,1.2,4.,1.2,0.,1.2
1981-08-24 00:01:00.330 ,7,0,0.,1.2,9.,1.2,4.,1.2,0.,1.2
1981-08-24 00:01:01.530 ,7,0,0.,1.2,4.,1.2,5.,1.2,0.,1.2
1981-08-24 00:01:02.730 ,7,0,0.,1.2,6.,1.2,1.,1.2,0.,1.2
1981-08-24 00:01:03.930 ,7,0,0.,1.2,2.,1.2,5.,1.2,0.,1.2
1981-08-24 00:01:05.130 ,7,0,0.,1.2,4.,1.2,3.,1.2,0.,1.2
1981-08-24 00:01:06.330 ,7,0,0.,1.2,6.,1.2,6.,1.2,0.,1.2
1981-08-24 00:01:07.530 ,7,0,0.,1.2,4.,1.2,5.,1.2,0.,1.2
1981-08-24 00:01:08.730 ,7,0,0.,1.2,3.,1.2,3.,1.2,0.,1.2
1981-08-24 00:01:09.930 ,7,0,0.,1.2,6.,1.2,3.,1.2,0.,1.2
1981-08-24 00:01:11.130 ,7,0,0.,1.2,13.,1.2,9.,1.2,0.,1.2
1981-08-24 00:01:12.330 ,7,0,0.,1.2,8.,1.2,2.,1.2,0.,1.2
1981-08-24 00:01:13.530 ,7,0,0.,1.2,3.,1.2,4.,1.2,0.,1.2
1981-08-24 00:01:14.730 ,7,0,0.,1.2,7.,1.2,5.,1.2,0.,1.2
1981-08-24 00:01:15.930 ,7,0,0.,1.2,7.,1.2,10.,1.2,0.,1.2
1981-08-24 00:01:17.130 ,7,0,0.,1.2,2.,1.2,3.,1.2,0.,1.2
1981-08-24 00:01:18.330 ,7,0,0.,1.2,7.,1.2,9.,1.2,0.,1.2
1981-08-24 00:01:19.530 ,7,0,0.,1.2,7.,1.2,5.,1.2,0.,1.2
1981-08-24 00:01:20.730 ,7,0,0.,1.2,5.,1.2,9.,1.2,0.,1.2
1981-08-24 00:01:21.930 ,7,0,0.,1.2,8.,1.2,3.,1.2,0.,1.2
1981-08-24 00:01:23.130 ,7,0,0.,1.2,10.,1.2,8.,1.2,0.,1.2
1981-08-24 00:01:24.330 ,7,0,0.,1.2,8.,1.2,3.,1.2,0.,1.2
1981-08-24 00:01:25.530 ,7,0,0.,1.2,4.,1.2,3.,1.2,0.,1.2
1981-08-24 00:01:26.730 ,7,0,0.,1.2,6.,1.2,5.,1.2,0.,1.2
1981-08-24 00:01:27.930 ,7,0,0.,1.2,4.,1.2,4.,1.2,0.,1.2
1981-08-24 00:01:29.130 ,7,0,0.,1.2,4.,1.2,3.,1.2,0.,1.2
1981-08-24 00:01:30.330 ,7,0,0.,1.2,5.,1.2,2.,1.2,0.,1.2
1981-08-24 00:01:31.530 ,7,0,0.,1.2,7.,1.2,6.,1.2,0.,1.2
1981-08-24 00:01:32.730 ,7,0,0.,1.2,6.,1.2,7.,1.2,0.,1.2
1981-08-24 00:01:33.930 ,7,0,0.,1.2,6.,1.2,7.,1.2,0.,1.2
1981-08-24 00:01:35.130 ,7,0,0.,1.2,5.,1.2,4.,1.2,0.,1.2
1981-08-24 00:01:36.330 ,7,0,0.,1.2,9.,1.2,7.,1.2,0.,1.2
1981-08-24 00:01:37.530 ,7,0,0.,1.2,5.,1.2,5.,1.2,0.,1.2
1981-08-24 00:01:38.730 ,7,0,0.,1.2,8.,1.2,4.,1.2,0.,1.2
1981-08-24 00:01:39.930 ,7,0,0.,1.2,10.,1.2,7.,1.2,0.,1.2
1981-08-24 00:01:41.130 ,7,0,0.,1.2,8.,1.2,8.,1.2,0.,1.2
1981-08-24 00:01:42.330 ,7,0,0.,1.2,9.,1.2,3.,1.2,0.,1.2
1981-08-24 00:01:43.530 ,7,0,0.,1.2,6.,1.2,7.,1.2,0.,1.2
1981-08-24 00:01:44.730 ,7,0,0.,1.2,5.,1.2,4.,1.2,0.,1.2
1981-08-24 00:01:45.930 ,7,0,0.,1.2,3.,1.2,3.,1.2,0.,1.2
1981-08-24 00:01:47.130 ,7,0,0.,1.2,3.,1.2,5.,1.2,0.,1.2
1981-08-24 00:01:48.330 ,7,0,0.,1.2,6.,1.2,4.,1.2,0.,1.2
1981-08-24 00:01:49.530 ,7,0,0.,1.2,0.,1.2,6.,1.2,0.,1.2
1981-08-24 00:01:50.730 ,7,0,0.,1.2,8.,1.2,7.,1.2,0.,1.2
1981-08-24 00:01:51.930 ,7,0,0.,1.2,5.,1.2,7.,1.2,0.,1.2
1981-08-24 00:01:53.130 ,7,0,0.,1.2,7.,1.2,4.,1.2,0.,1.2
1981-08-24 00:01:54.330 ,7,0,0.,1.2,7.,1.2,3.,1.2,0.,1.2
1981-08-24 00:01:55.530 ,7,0,0.,1.2,5.,1.2,3.,1.2,0.,1.2
1981-08-24 00:01:56.730 ,7,0,0.,1.2,4.,1.2,3.,1.2,0.,1.2
1981-08-24 00:01:57.930 ,7,0,0.,1.2,4.,1.2,6.,1.2,0.,1.2
1981-08-24 00:01:59.130 ,7,0,0.,1.2,6.,1.2,8.,1.2,0.,1.2
1981-08-24 00:02:00.330 ,6,0,0.,1.2,5.,1.2,2.,1.2,0.,1.2
1981-08-24 00:02:01.530 ,6,0,0.,1.2,3.,1.2,12.,1.2,0.,1.2
1981-08-24 00:02:02.730 ,6,0,0.,1.2,6.,1.2,6.,1.2,0.,1.2
1981-08-24 00:02:03.930 ,6,0,0.,1.2,4.,1.2,5.,1.2,0.,1.2
1981-08-24 00:02:05.130 ,6,0,0.,1.2,9.,1.2,2.,1.2,0.,1.2
1981-08-24 00:02:06.330 ,6,0,0.,1.2,544.,1.2,3.,1.2,0.,1.2
1981-08-24 00:02:07.530 ,6,0,0.,1.2,6.,1.2,0.,1.2,0.,1.2
1981-08-24 00:02:08.730 ,6,0,1.,1.2,10.,1.2,0.,1.2,0.,1.2
1981-08-24 00:02:09.930 ,6,0,0.,1.2,6.,1.2,0.,1.2,0.,1.2
1981-08-24 00:02:11.130 ,6,0,0.,1.2,5.,1.2,0.,1.2,0.,1.2
1981-08-24 00:02:12.330 ,6,0,0.,1.2,5.,1.2,0.,1.2,0.,1.2
1981-08-24 00:02:13.530 ,6,0,1.,1.2,5.,1.2,0.,1.2,0.,1.2
1981-08-24 00:02:14.730 ,6,0,1.,1.2,8.,1.2,0.,1.2,0.,1.2
1981-08-24 00:02:15.930 ,6,0,1.,1.2,5.,1.2,0.,1.2,0.,1.2
1981-08-24 00:02:17.130 ,6,0,0.,1.2,2.,1.2,0.,1.2,0.,1.2
1981-08-24 00:02:18.330 ,6,0,0.,1.2,6.,1.2,1.,1.2,0.,1.2
1981-08-24 00:02:19.530 ,6,0,1.,1.2,2.,1.2,0.,1.2,0.,1.2
1981-08-24 00:02:20.730 ,6,0,0.,1.2,7.,1.2,0.,1.2,0.,1.2
1981-08-24 00:02:21.930 ,6,0,2.,1.2,5.,1.2,0.,1.2,0.,1.2
1981-08-24 00:02:23.130 ,6,0,0.,1.2,11.,1.2,0.,1.2,0.,1.2
1981-08-24 00:02:24.330 ,5,0,0.,1.2,7.,1.2,0.,1.2,0.,1.2
1981-08-24 00:02:25.530 ,5,0,1.,1.2,5.,1.2,0.,1.2,0.,1.2
1981-08-24 00:02:26.730 ,5,0,0.,1.2,8.,1.2,0.,1.2,0.,1.2
1981-08-24 00:02:27.930 ,5,0,0.,1.2,4.,1.2,0.,1.2,0.,1.2
1981-08-24 00:02:29.130 ,5,0,0.,1.2,4.,1.2,0.,1.2,0.,1.2
1981-08-24 00:02:30.330 ,5,0,0.,1.2,544.,1.2,0.,1.2,0.,1.2
1981-08-24 00:02:31.530 ,5,0,0.,1.2,5.,1.2,0.,1.2,0.,1.2
1981-08-24 00:02:32.730 ,5,0,3.,1.2,4.,1.2,0.,1.2,0.,1.2
1981-08-24 00:02:33.930 ,5,0,1.,1.2,9.,1.2,0.,1.2,0.,1.2
1981-08-24 00:02:35.130 ,5,0,0.,1.2,9.,1.2,0.,1.2,0.,1.2
1981-08-24 00:02:36.330 ,5,0,0.,1.2,5.,1.2,0.,1.2,0.,1.2
1981-08-24 00:02:37.530 ,5,0,0.,1.2,6.,1.2,0.,1.2,0.,1.2
1981-08-24 00:02:38.730 ,5,0,0.,1.2,6.,1.2,0.,1.2,0.,1.2
1981-08-24 00:02:39.930 ,5,0,1.,1.2,7.,1.2,0.,1.2,0.,1.2
1981-08-24 00:02:41.130 ,5,0,1.,1.2,7.,1.2,0.,1.2,0.,1.2
1981-08-24 00:02:42.330 ,5,0,0.,1.2,7.,1.2,0.,1.2,0.,1.2
1981-08-24 00:02:43.530 ,5,0,0.,1.2,6.,1.2,0.,1.2,0.,1.2
1981-08-24 00:02:44.730 ,5,0,1.,1.2,6.,1.2,0.,1.2,0.,1.2
1981-08-24 00:02:45.930 ,5,0,0.,1.2,4.,1.2,0.,1.2,0.,1.2
1981-08-24 00:02:47.130 ,5,0,0.,1.2,7.,1.2,0.,1.2,0.,1.2
1981-08-24 00:02:48.330 ,4,0,2.,1.2,6.,1.2,0.,1.2,0.,1.2
1981-08-24 00:02:49.530 ,4,0,1.,1.2,1.,1.2,0.,1.2,0.,1.2
1981-08-24 00:02:50.730 ,4,0,1.,1.2,3.,1.2,0.,1.2,0.,1.2
1981-08-24 00:02:51.930 ,4,0,0.,1.2,9.,1.2,0.,1.2,0.,1.2
1981-08-24 00:02:53.130 ,4,0,1.,1.2,5.,1.2,0.,1.2,0.,1.2
1981-08-24 00:02:54.330 ,4,0,1.,1.2,464.,1.2,0.,1.2,0.,1.2
1981-08-24 00:02:55.530 ,4,0,1.,1.2,6.,1.2,0.,1.2,0.,1.2
1981-08-24 00:02:56.730 ,4,0,0.,1.2,9.,1.2,0.,1.2,0.,1.2
1981-08-24 00:02:57.930 ,4,0,0.,1.2,4.,1.2,0.,1.2,0.,1.2
1981-08-24 00:02:59.130 ,4,0,1.,1.2,3.,1.2,0.,1.2,0.,1.2
1981-08-24 00:03:00.330 ,4,0,0.,1.2,7.,1.2,0.,1.2,0.,1.2
1981-08-24 00:03:01.530 ,4,0,0.,1.2,3.,1.2,0.,1.2,0.,1.2
1981-08-24 00:03:02.730 ,4,0,1.,1.2,11.,1.2,0.,1.2,0.,1.2
1981-08-24 00:03:03.930 ,4,0,0.,1.2,2.,1.2,0.,1.2,0.,1.2
1981-08-24 00:03:05.130 ,4,0,0.,1.2,6.,1.2,0.,1.2,0.,1.2
1981-08-24 00:03:06.330 ,4,0,0.,1.2,3.,1.2,0.,1.2,0.,1.2
1981-08-24 00:03:07.530 ,4,0,0.,1.2,3.,1.2,0.,1.2,0.,1.2
1981-08-24 00:03:08.730 ,4,0,0.,1.2,3.,1.2,0.,1.2,0.,1.2
1981-08-24 00:03:09.930 ,4,0,0.,1.2,4.,1.2,0.,1.2,0.,1.2
1981-08-24 00:03:11.130 ,4,0,1.,1.2,7.,1.2,0.,1.2,0.,1.2
1981-08-24 00:03:12.330 ,3,0,0.,1.2,7.,1.2,0.,1.2,0.,1.2
1981-08-24 00:03:13.530 ,3,0,0.,1.2,9.,1.2,0.,1.2,0.,1.2
1981-08-24 00:03:14.730 ,3,0,0.,1.2,4.,1.2,0.,1.2,0.,1.2
1981-08-24 00:03:15.930 ,3,0,0.,1.2,5.,1.2,0.,1.2,0.,1.2
1981-08-24 00:03:17.130 ,3,0,0.,1.2,5.,1.2,0.,1.2,0.,1.2
1981-08-24 00:03:18.330 ,3,0,0.,1.2,656.,1.2,0.,1.2,0.,1.2
1981-08-24 00:03:19.530 ,3,0,0.,1.2,4.,1.2,0.,1.2,0.,1.2
1981-08-24 00:03:20.730 ,3,0,0.,1.2,6.,1.2,0.,1.2,0.,1.2
1981-08-24 00:03:21.930 ,3,0,0.,1.2,8.,1.2,0.,1.2,0.,1.2
1981-08-24 00:03:23.130 ,3,0,0.,1.2,3.,1.2,0.,1.2,0.,1.2
1981-08-24 00:03:24.330 ,3,0,0.,1.2,7.,1.2,0.,1.2,1.,1.2
1981-08-24 00:03:25.530 ,3,0,0.,1.2,10.,1.2,0.,1.2,0.,1.2
1981-08-24 00:03:26.730 ,3,0,1.,1.2,7.,1.2,0.,1.2,0.,1.2
1981-08-24 00:03:27.930 ,3,0,0.,1.2,7.,1.2,0.,1.2,0.,1.2
1981-08-24 00:03:29.130 ,3,0,1.,1.2,9.,1.2,0.,1.2,0.,1.2
1981-08-24 00:03:30.330 ,3,0,2.,1.2,6.,1.2,0.,1.2,0.,1.2
1981-08-24 00:03:31.530 ,3,0,0.,1.2,2.,1.2,0.,1.2,0.,1.2
1981-08-24 00:03:32.730 ,3,0,1.,1.2,3.,1.2,0.,1.2,0.,1.2
1981-08-24 00:03:33.930 ,3,0,1.,1.2,3.,1.2,0.,1.2,0.,1.2
1981-08-24 00:03:35.130 ,3,0,1.,1.2,7.,1.2,0.,1.2,0.,1.2
1981-08-24 00:03:36.330 ,2,0,0.,1.2,9.,1.2,0.,1.2,0.,1.2
1981-08-24 00:03:37.530 ,2,0,0.,1.2,10.,1.2,0.,1.2,0.,1.2
1981-08-24 00:03:38.730 ,2,0,0.,1.2,7.,1.2,0.,1.2,0.,1.2
1981-08-24 00:03:39.930 ,2,0,0.,1.2,2.,1.2,0.,1.2,0.,1.2
1981-08-24 00:03:41.130 ,2,0,0.,1.2,2.,1.2,0.,1.2,0.,1.2
1981-08-24 00:03:42.330 ,2,0,1.,1.2,488.,1.2,0.,1.2,0.,1.2
1981-08-24 00:03:43.530 ,2,0,1.,1.2,4.,1.2,0.,1.2,0.,1.2
1981-08-24 00:03:44.730 ,2,0,0.,1.2,2.,1.2,0.,1.2,0.,1.2
1981-08-24 00:03:45.930 ,2,0,0.,1.2,8.,1.2,0.,1.2,0.,1.2
1981-08-24 00:03:47.130 ,2,0,0.,1.2,5.,1.2,0.,1.2,0.,1.2
1981-08-24 00:03:48.330 ,2,0,1.,1.2,2.,1.2,0.,1.2,0.,1.2
1981-08-24 00:03:49.530 ,2,0,1.,1.2,4.,1.2,0.,1.2,0.,1.2
1981-08-24 00:03:50.730 ,2,0,0.,1.2,4.,1.2,1.,1.2,0.,1.2
1981-08-24 00:03:51.930 ,2,0,1.,1.2,7.,1.2,0.,1.2,0.,1.2
1981-08-24 00:03:53.130 ,2,0,0.,1.2,5.,1.2,0.,1.2,0.,1.2
1981-08-24 00:03:54.330 ,2,0,1.,1.2,4.,1.2,0.,1.2,0.,1.2
1981-08-24 00:03:55.530 ,2,0,0.,1.2,6.,1.2,0.,1.2,0.,1.2
1981-08-24 00:03:56.730 ,2,0,0.,1.2,6.,1.2,0.,1.2,0.,1.2
1981-08-24 00:03:57.930 ,2,0,1.,1.2,5.,1.2,0.,1.2,0.,1.2
1981-08-24 00:03:59.130 ,2,0,0.,1.2,3.,1.2,0.,1.2,0.,1.2
1981-08-24 00:04:00.330 ,1,0,0.,1.2,6.,1.2,0.,1.2,0.,1.2
1981-08-24 00:04:01.530 ,1,0,1.,1.2,5.,1.2,0.,1.2,0.,1.2
1981-08-24 00:04:02.730 ,1,0,0.,1.2,6.,1.2,0.,1.2,0.,1.2
1981-08-24 00:04:03.930 ,1,0,0.,1.2,6.,1.2,0.,1.2,0.,1.2
1981-08-24 00:04:05.130 ,1,0,0.,1.2,6.,1.2,0.,1.2,0.,1.2
1981-08-24 00:04:06.330 ,1,0,0.,1.2,512.,1.2,0.,1.2,0.,1.2
1981-08-24 00:04:07.530 ,1,0,0.,1.2,7.,1.2,0.,1.2,0.,1.2
1981-08-24 00:04:08.730 ,1,0,1.,1.2,2.,1.2,0.,1.2,0.,1.2
1981-08-24 00:04:09.930 ,1,0,0.,1.2,9.,1.2,0.,1.2,0.,1.2
1981-08-24 00:04:11.130 ,1,0,0.,1.2,10.,1.2,0.,1.2,0.,1.2
1981-08-24 00:04:12.330 ,1,0,1.,1.2,0.,1.2,0.,1.2,0.,1.2
1981-08-24 00:04:13.530 ,1,0,0.,1.2,4.,1.2,0.,1.2,0.,1.2
1981-08-24 00:04:14.730 ,1,0,1.,1.2,3.,1.2,0.,1.2,0.,1.2
1981-08-24 00:04:15.930 ,1,0,0.,1.2,5.,1.2,0.,1.2,0.,1.2
1981-08-24 00:04:17.130 ,1,0,0.,1.2,3.,1.2,0.,1.2,0.,1.2
1981-08-24 00:04:18.330 ,1,0,0.,1.2,6.,1.2,0.,1.2,0.,1.2
1981-08-24 00:04:19.530 ,1,0,0.,1.2,4.,1.2,0.,1.2,1.,1.2
1981-08-24 00:04:20.730 ,1,0,1.,1.2,9.,1.2,0.,1.2,0.,1.2
1981-08-24 00:04:21.930 ,1,0,1.,1.2,2.,1.2,0.,1.2,0.,1.2
1981-08-24 00:04:23.130 ,1,0,1.,1.2,4.,1.2,0.,1.2,0.,1.2
1981-08-24 00:04:24.330 ,0,0,0.,1.2,7.,1.2,0.,1.2,0.,1.2
1981-08-24 00:04:25.530 ,0,0,0.,1.2,5.,1.2,0.,1.2,0.,1.2
1981-08-24 00:04:26.730 ,0,0,1.,1.2,3.,1.2,0.,1.2,0.,1.2
1981-08-24 00:04:27.930 ,0,0,0.,1.2,6.,1.2,0.,1.2,0.,1.2
1981-08-24 00:04:29.130 ,0,0,1.,1.2,3.,1.2,0.,1.2,0.,1.2
1981-08-24 00:04:30.330 ,0,0,1.,1.2,560.,1.2,0.,1.2,0.,1.2
1981-08-24 00:04:31.530 ,0,0,1.,1.2,2.,1.2,0.,1.2,0.,1.2
1981-08-24 00:04:32.730 ,0,0,0.,1.2,5.,1.2,0.,1.2,0.,1.2
1981-08-24 00:04:33.930 ,0,0,0.,1.2,8.,1.2,0.,1.2,0.,1.2
1981-08-24 00:04:35.130 ,0,0,0.,1.2,9.,1.2,0.,1.2,0.,1.2
1981-08-24 00:04:36.330 ,0,0,1.,1.2,4.,1.2,0.,1.2,0.,1.2
1981-08-24 00:04:37.530 ,0,0,1.,1.2,4.,1.2,0.,1.2,0.,1.2
1981-08-24 00:04:38.730 ,0,0,0.,1.2,4.,1.2,0.,1.2,0.,1.2
1981-08-24 00:04:39.930 ,0,0,0.,1.2,5.,1.2,0.,1.2,0.,1.2
1981-08-24 00:04:41.130 ,0,0,2.,1.2,3.,1.2,0.,1.2,0.,1.2
1981-08-24 00:04:42.330 ,0,0,0.,1.2,6.,1.2,0.,1.2,0.,1.2
1981-08-24 00:04:43.530 ,0,0,0.,1.2,7.,1.2,0.,1.2,0.,1.2
1981-08-24 00:04:44.730 ,0,0,1.,1.2,9.,1.2,0.,1.2,0.,1.2
1981-08-24 00:04:45.930 ,0,0,1.,1.2,7.,1.2,0.,1.2,0.,1.2
1981-08-24 00:04:47.130 ,0,0,0.,1.2,5.,1.2,0.,1.2,0.,1.2
1981-08-24 00:04:48.330 ,0,0,0.,1.2,4.,1.2,0.,1.2,0.,1.2
1981-08-24 00:04:49.530 ,0,0,1.,1.2,8.,1.2,0.,1.2,0.,1.2
1981-08-24 00:04:50.730 ,0,0,1.,1.2,6.,1.2,0.,1.2,0.,1.2
1981-08-24 00:04:51.930 ,0,0,0.,1.2,7.,1.2,0.,1.2,0.,1.2
1981-08-24 00:04:53.130 ,0,0,0.,1.2,3.,1.2,0.,1.2,0.,1.2
1981-08-24 00:04:54.330 ,0,0,0.,1.2,29.,1.2,0.,1.2,0.,1.2
1981-08-24 00:04:55.530 ,0,0,0.,1.2,6.,1.2,0.,1.2,0.,1.2
1981-08-24 00:04:56.730 ,0,0,2.,1.2,5.,1.2,0.,1.2,0.,1.2
1981-08-24 00:04:57.930 ,0,0,0.,1.2,1.,1.2,0.,1.2,0.,1.2
1981-08-24 00:04:59.130 ,0,0,2.,1.2,4.,1.2,0.,1.2,0.,1.2
1981-08-24 00:05:00.330 ,0,0,0.,1.2,6.,1.2,0.,1.2,0.,1.2
1981-08-24 00:05:01.530 ,0,0,0.,1.2,4.,1.2,0.,1.2,0.,1.2
1981-08-24 00:05:02.730 ,0,0,0.,1.2,2.,1.2,0.,1.2,0.,1.2
1981-08-24 00:05:03.930 ,0,0,0.,1.2,5.,1.2,0.,1.2,0.,1.2
1981-08-24 00:05:05.130 ,0,0,0.,1.2,5.,1.2,0.,1.2,0.,1.2
1981-08-24 00:05:06.330 ,0,0,1.,1.2,6.,1.2,0.,1.2,0.,1.2
1981-08-24 00:05:07.530 ,0,0,3.,1.2,5.,1.2,0.,1.2,0.,1.2
1981-08-24 00:05:08.730 ,0,0,1.,1.2,5.,1.2,0.,1.2,0.,1.2
1981-08-24 00:05:09.930 ,0,0,1.,1.2,3.,1.2,0.,1.2,0.,1.2
1981-08-24 00:05:11.130 ,0,0,0.,1.2,7.,1.2,0.,1.2,0.,1.2
1981-08-24 00:05:12.330 ,1,0,0.,1.2,12.,1.2,0.,1.2,0.,1.2
1981-08-24 00:05:13.530 ,1,0,0.,1.2,4.,1.2,0.,1.2,0.,1.2
1981-08-24 00:05:14.730 ,1,0,0.,1.2,7.,1.2,0.,1.2,0.,1.2
1981-08-24 00:05:15.930 ,1,0,1.,1.2,5.,1.2,0.,1.2,0.,1.2
1981-08-24 00:05:17.130 ,1,0,0.,1.2,6.,1.2,0.,1.2,0.,1.2
1981-08-24 00:05:18.330 ,1,0,0.,1.2,608.,1.2,0.,1.2,0.,1.2
1981-08-24 00:05:19.530 ,1,0,0.,1.2,9.,1.2,0.,1.2,0.,1.2
1981-08-24 00:05:20.730 ,1,0,0.,1.2,5.,1.2,0.,1.2,0.,1.2
1981-08-24 00:05:21.930 ,1,0,0.,1.2,6.,1.2,0.,1.2,0.,1.2
1981-08-24 00:05:23.130 ,1,0,0.,1.2,5.,1.2,0.,1.2,0.,1.2
1981-08-24 00:05:24.330 ,1,0,0.,1.2,3.,1.2,0.,1.2,0.,1.2
1981-08-24 00:05:25.530 ,1,0,0.,1.2,6.,1.2,0.,1.2,0.,1.2
1981-08-24 00:05:26.730 ,1,0,2.,1.2,7.,1.2,0.,1.2,0.,1.2
1981-08-24 00:05:27.930 ,1,0,1.,1.2,7.,1.2,0.,1.2,0.,1.2
1981-08-24 00:05:29.130 ,1,0,2.,1.2,5.,1.2,0.,1.2,0.,1.2
1981-08-24 00:05:30.330 ,1,0,1.,1.2,9.,1.2,0.,1.2,0.,1.2
1981-08-24 00:05:31.530 ,1,0,2.,1.2,8.,1.2,0.,1.2,0.,1.2
1981-08-24 00:05:32.730 ,1,0,0.,1.2,8.,1.2,0.,1.2,0.,1.2
1981-08-24 00:05:33.930 ,1,0,2.,1.2,4.,1.2,0.,1.2,0.,1.2
1981-08-24 00:05:35.130 ,1,0,0.,1.2,5.,1.2,0.,1.2,0.,1.2
1981-08-24 00:05:36.330 ,2,0,1.,1.2,7.,1.2,0.,1.2,0.,1.2
1981-08-24 00:05:37.530 ,2,0,0.,1.2,5.,1.2,0.,1.2,0.,1.2
1981-08-24 00:05:38.730 ,2,0,1.,1.2,5.,1.2,0.,1.2,0.,1.2
1981-08-24 00:05:39.930 ,2,0,1.,1.2,2.,1.2,0.,1.2,0.,1.2
1981-08-24 00:05:41.130 ,2,0,1.,1.2,0.,1.2,0.,1.2,0.,1.2
1981-08-24 00:05:42.330 ,2,0,0.,1.2,480.,1.2,0.,1.2,0.,1.2
1981-08-24 00:05:43.530 ,2,0,0.,1.2,5.,1.2,0.,1.2,0.,1.2
1981-08-24 00:05:44.730 ,2,0,0.,1.2,11.,1.2,0.,1.2,0.,1.2
1981-08-24 00:05:45.930 ,2,0,0.,1.2,9.,1.2,0.,1.2,0.,1.2
1981-08-24 00:05:47.130 ,2,0,1.,1.2,3.,1.2,0.,1.2,0.,1.2
1981-08-24 00:05:48.330 ,2,0,0.,1.2,12.,1.2,0.,1.2,1.,1.2
1981-08-24 00:05:49.530 ,2,0,0.,1.2,8.,1.2,0.,1.2,0.,1.2
1981-08-24 00:05:50.730 ,2,0,0.,1.2,0.,1.2,0.,1.2,0.,1.2
1981-08-24 00:05:51.930 ,2,0,2.,1.2,3.,1.2,0.,1.2,0.,1.2
1981-08-24 00:05:53.130 ,2,0,0.,1.2,6.,1.2,0.,1.2,0.,1.2
1981-08-24 00:05:54.330 ,2,0,0.,1.2,10.,1.2,0.,1.2,0.,1.2
1981-08-24 00:05:55.530 ,2,0,0.,1.2,7.,1.2,0.,1.2,0.,1.2
1981-08-24 00:05:56.730 ,2,0,0.,1.2,3.,1.2,0.,1.2,0.,1.2
1981-08-24 00:05:57.930 ,2,0,1.,1.2,8.,1.2,0.,1.2,0.,1.2
1981-08-24 00:05:59.130 ,2,0,1.,1.2,5.,1.2,0.,1.2,0.,1.2
1981-08-24 00:06:00.330 ,3,0,1.,1.2,3.,1.2,0.,1.2,0.,1.2
1981-08-24 00:06:01.530 ,3,0,0.,1.2,8.,1.2,0.,1.2,0.,1.2
1981-08-24 00:06:02.730 ,3,0,0.,1.2,7.,1.2,0.,1.2,0.,1.2
1981-08-24 00:06:03.930 ,3,0,0.,1.2,7.,1.2,0.,1.2,0.,1.2
1981-08-24 00:06:05.130 ,3,0,1.,1.2,2.,1.2,0.,1.2,0.,1.2
1981-08-24 00:06:06.330 ,3,0,1.,1.2,624.,1.2,0.,1.2,0.,1.2
1981-08-24 00:06:07.530 ,3,0,0.,1.2,5.,1.2,0.,1.2,0.,1.2
1981-08-24 00:06:08.730 ,3,0,0.,1.2,6.,1.2,0.,1.2,0.,1.2
1981-08-24 00:06:09.930 ,3,0,0.,1.2,5.,1.2,0.,1.2,0.,1.2
1981-08-24 00:06:11.130 ,3,0,0.,1.2,5.,1.2,0.,1.2,0.,1.2
1981-08-24 00:06:12.330 ,3,0,1.,1.2,7.,1.2,0.,1.2,0.,1.2
1981-08-24 00:06:13.530 ,3,0,0.,1.2,8.,1.2,0.,1.2,0.,1.2
1981-08-24 00:06:14.730 ,3,0,0.,1.2,2.,1.2,0.,1.2,0.,1.2
1981-08-24 00:06:15.930 ,3,0,1.,1.2,6.,1.2,0.,1.2,0.,1.2
1981-08-24 00:06:17.130 ,3,0,1.,1.2,7.,1.2,0.,1.2,0.,1.2
1981-08-24 00:06:18.330 ,3,0,1.,1.2,5.,1.2,0.,1.2,0.,1.2
1981-08-24 00:06:19.530 ,3,0,0.,1.2,7.,1.2,0.,1.2,0.,1.2
1981-08-24 00:06:20.730 ,3,0,1.,1.2,5.,1.2,0.,1.2,0.,1.2
1981-08-24 00:06:21.930 ,3,0,0.,1.2,7.,1.2,0.,1.2,0.,1.2
1981-08-24 00:06:23.130 ,3,0,0.,1.2,2.,1.2,0.,1.2,0.,1.2
1981-08-24 00:06:24.330 ,4,0,0.,1.2,3.,1.2,0.,1.2,0.,1.2
1981-08-24 00:06:25.530 ,4,0,0.,1.2,6.,1.2,0.,1.2,0.,1.2
1981-08-24 00:06:26.730 ,4,0,0.,1.2,7.,1.2,0.,1.2,0.,1.2
1981-08-24 00:06:27.930 ,4,0,0.,1.2,7.,1.2,0.,1.2,0.,1.2
1981-08-24 00:06:29.130 ,4,0,0.,1.2,5.,1.2,0.,1.2,0.,1.2
1981-08-24 00:06:30.330 ,4,0,0.,1.2,592.,1.2,0.,1.2,0.,1.2
1981-08-24 00:06:31.530 ,4,0,0.,1.2,7.,1.2,0.,1.2,0.,1.2
1981-08-24 00:06:32.730 ,4,0,0.,1.2,11.,1.2,0.,1.2,0.,1.2
1981-08-24 00:06:33.930 ,4,0,0.,1.2,4.,1.2,0.,1.2,0.,1.2
1981-08-24 00:06:35.130 ,4,0,0.,1.2,12.,1.2,0.,1.2,0.,1.2
1981-08-24 00:06:36.330 ,4,0,1.,1.2,7.,1.2,0.,1.2,1.,1.2
1981-08-24 00:06:37.530 ,4,0,0.,1.2,4.,1.2,0.,1.2,0.,1.2
1981-08-24 00:06:38.730 ,4,0,1.,1.2,7.,1.2,0.,1.2,0.,1.2
1981-08-24 00:06:39.930 ,4,0,0.,1.2,6.,1.2,0.,1.2,0.,1.2
1981-08-24 00:06:41.130 ,4,0,0.,1.2,5.,1.2,0.,1.2,0.,1.2
1981-08-24 00:06:42.330 ,4,0,0.,1.2,3.,1.2,0.,1.2,0.,1.2
1981-08-24 00:06:43.530 ,4,0,1.,1.2,7.,1.2,0.,1.2,1.,1.2
1981-08-24 00:06:44.730 ,4,0,0.,1.2,4.,1.2,0.,1.2,0.,1.2
1981-08-24 00:06:45.930 ,4,0,0.,1.2,4.,1.2,0.,1.2,0.,1.2
1981-08-24 00:06:47.130 ,4,0,1.,1.2,2.,1.2,0.,1.2,0.,1.2
1981-08-24 00:06:48.330 ,5,0,1.,1.2,12.,1.2,0.,1.2,0.,1.2
1981-08-24 00:06:49.530 ,5,0,0.,1.2,5.,1.2,1.,1.2,0.,1.2
1981-08-24 00:06:50.730 ,5,0,0.,1.2,5.,1.2,0.,1.2,0.,1.2
1981-08-24 00:06:51.930 ,5,0,1.,1.2,6.,1.2,0.,1.2,0.,1.2
1981-08-24 00:06:53.130 ,5,0,0.,1.2,9.,1.2,0.,1.2,0.,1.2
1981-08-24 00:06:54.330 ,5,0,0.,1.2,480.,1.2,0.,1.2,0.,1.2
1981-08-24 00:06:55.530 ,5,0,2.,1.2,3.,1.2,0.,1.2,0.,1.2
1981-08-24 00:06:56.730 ,5,0,0.,1.2,8.,1.2,0.,1.2,0.,1.2
1981-08-24 00:06:57.930 ,5,0,0.,1.2,9.,1.2,0.,1.2,0.,1.2
1981-08-24 00:06:59.130 ,5,0,0.,1.2,10.,1.2,0.,1.2,0.,1.2
1981-08-24 00:07:00.330 ,5,0,0.,1.2,5.,1.2,0.,1.2,0.,1.2
1981-08-24 00:07:01.530 ,5,0,0.,1.2,2.,1.2,0.,1.2,0.,1.2
1981-08-24 00:07:02.730 ,5,0,0.,1.2,2.,1.2,0.,1.2,0.,1.2
1981-08-24 00:07:03.930 ,5,0,0.,1.2,4.,1.2,0.,1.2,0.,1.2
1981-08-24 00:07:05.130 ,5,0,0.,1.2,7.,1.2,0.,1.2,0.,1.2
1981-08-24 00:07:06.330 ,5,0,0.,1.2,4.,1.2,0.,1.2,0.,1.2
1981-08-24 00:07:07.530 ,5,0,0.,1.2,4.,1.2,0.,1.2,0.,1.2
1981-08-24 00:07:08.730 ,5,0,0.,1.2,13.,1.2,0.,1.2,0.,1.2
1981-08-24 00:07:09.930 ,5,0,0.,1.2,4.,1.2,0.,1.2,0.,1.2
1981-08-24 00:07:11.130 ,5,0,1.,1.2,4.,1.2,0.,1.2,0.,1.2
1981-08-24 00:07:12.330 ,6,0,1.,1.2,9.,1.2,0.,1.2,0.,1.2
1981-08-24 00:07:13.530 ,6,0,0.,1.2,2.,1.2,0.,1.2,0.,1.2
1981-08-24 00:07:14.730 ,6,0,0.,1.2,11.,1.2,0.,1.2,0.,1.2
1981-08-24 00:07:15.930 ,6,0,1.,1.2,11.,1.2,0.,1.2,0.,1.2
1981-08-24 00:07:17.130 ,6,0,0.,1.2,5.,1.2,0.,1.2,0.,1.2
1981-08-24 00:07:18.330 ,6,0,0.,1.2,496.,1.2,0.,1.2,0.,1.2
1981-08-24 00:07:19.530 ,6,0,0.,1.2,3.,1.2,0.,1.2,0.,1.2
1981-08-24 00:07:20.730 ,6,0,1.,1.2,6.,1.2,0.,1.2,0.,1.2
1981-08-24 00:07:21.930 ,6,0,0.,1.2,5.,1.2,0.,1.2,0.,1.2
1981-08-24 00:07:23.130 ,6,0,0.,1.2,4.,1.2,0.,1.2,0.,1.2
1981-08-24 00:07:24.330 ,6,0,0.,1.2,6.,1.2,0.,1.2,0.,1.2
1981-08-24 00:07:25.530 ,6,0,0.,1.2,6.,1.2,0.,1.2,0.,1.2
1981-08-24 00:07:26.730 ,6,0,0.,1.2,4.,1.2,0.,1.2,0.,1.2
1981-08-24 00:07:27.930 ,6,0,1.,1.2,3.,1.2,0.,1.2,0.,1.2
1981-08-24 00:07:29.130 ,6,0,1.,1.2,8.,1.2,0.,1.2,0.,1.2
1981-08-24 00:07:30.330 ,6,0,0.,1.2,6.,1.2,0.,1.2,0.,1.2
1981-08-24 00:07:31.530 ,6,0,0.,1.2,7.,1.2,0.,1.2,0.,1.2
1981-08-24 00:07:32.730 ,6,0,1.,1.2,6.,1.2,0.,1.2,0.,1.2
1981-08-24 00:07:33.930 ,6,0,0.,1.2,10.,1.2,0.,1.2,0.,1.2
1981-08-24 00:07:35.130 ,6,0,0.,1.2,8.,1.2,0.,1.2,0.,1.2
1981-08-24 00:07:36.330 ,7,0,0.,1.2,5.,1.2,0.,1.2,0.,1.2
1981-08-24 00:07:37.530 ,7,0,0.,1.2,3.,1.2,0.,1.2,0.,1.2
1981-08-24 00:07:38.730 ,7,0,1.,1.2,5.,1.2,0.,1.2,0.,1.2
1981-08-24 00:07:39.930 ,7,0,0.,1.2,12.,1.2,0.,1.2,0.,1.2
1981-08-24 00:07:41.130 ,7,0,0.,1.2,3.,1.2,0.,1.2,0.,1.2
1981-08-24 00:07:42.330 ,7,0,0.,1.2,624.,1.2,1.,1.2,0.,1.2
1981-08-24 00:07:43.530 ,7,0,0.,1.2,2.,1.2,5.,1.2,0.,1.2
1981-08-24 00:07:44.730 ,7,0,0.,1.2,7.,1.2,7.,1.2,0.,1.2
1981-08-24 00:07:45.930 ,7,0,0.,1.2,5.,1.2,8.,1.2,0.,1.2
1981-08-24 00:07:47.130 ,7,0,0.,1.2,7.,1.2,5.,1.2,0.,1.2
1981-08-24 00:07:48.330 ,7,0,0.,1.2,5.,1.2,7.,1.2,0.,1.2
1981-08-24 00:07:49.530 ,7,0,0.,1.2,4.,1.2,8.,1.2,0.,1.2
1981-08-24 00:07:50.730 ,7,0,0.,1.2,9.,1.2,4.,1.2,0.,1.2
1981-08-24 00:07:51.930 ,7,0,0.,1.2,5.,1.2,7.,1.2,0.,1.2
1981-08-24 00:07:53.130 ,7,0,0.,1.2,4.,1.2,7.,1.2,0.,1.2
1981-08-24 00:07:54.330 ,7,0,0.,1.2,3.,1.2,3.,1.2,0.,1.2
1981-08-24 00:07:55.530 ,7,0,0.,1.2,7.,1.2,2.,1.2,0.,1.2
1981-08-24 00:07:56.730 ,7,0,0.,1.2,3.,1.2,4.,1.2,0.,1.2
1981-08-24 00:07:57.930 ,7,0,0.,1.2,8.,1.2,7.,1.2,0.,1.2
1981-08-24 00:07:59.130 ,7,0,0.,1.2,11.,1.2,1.,1.2,0.,1.2
1981-08-24 00:08:00.330 ,7,0,0.,1.2,6.,1.2,4.,1.2,0.,1.2
1981-08-24 00:08:01.530 ,7,0,0.,1.2,4.,1.2,5.,1.2,0.,1.2
1981-08-24 00:08:02.730 ,7,0,0.,1.2,7.,1.2,4.,1.2,0.,1.2
1981-08-24 00:08:03.930 ,7,0,0.,1.2,7.,1.2,7.,1.2,0.,1.2
1981-08-24 00:08:05.130 ,7,0,0.,1.2,7.,1.2,12.,1.2,0.,1.2
1981-08-24 00:08:06.330 ,7,0,0.,1.2,44.,1.2,8.,1.2,0.,1.2
1981-08-24 00:08:07.530 ,7,0,0.,1.2,6.,1.2,4.,1.2,0.,1.2
1981-08-24 00:08:08.730 ,7,0,0.,1.2,3.,1.2,10.,1.2,0.,1.2
1981-08-24 00:08:09.930 ,7,0,0.,1.2,6.,1.2,5.,1.2,0.,1.2
1981-08-24 00:08:11.130 ,7,0,0.,1.2,5.,1.2,6.,1.2,0.,1.2
1981-08-24 00:08:12.330 ,7,0,0.,1.2,8.,1.2,5.,1.2,0.,1.2
1981-08-24 00:08:13.530 ,7,0,0.,1.2,3.,1.2,7.,1.2,0.,1.2
1981-08-24 00:08:14.730 ,7,0,0.,1.2,5.,1.2,6.,1.2,0.,1.2
1981-08-24 00:08:15.930 ,7,0,0.,1.2,4.,1.2,6.,1.2,0.,1.2
1981-08-24 00:08:17.130 ,7,0,0.,1.2,7.,1.2,2.,1.2,0.,1.2
1981-08-24 00:08:18.330 ,7,0,0.,1.2,9.,1.2,9.,1.2,0.,1.2
1981-08-24 00:08:19.530 ,7,0,0.,1.2,9.,1.2,3.,1.2,0.,1.2
1981-08-24 00:08:20.730 ,7,0,0.,1.2,6.,1.2,4.,1.2,0.,1.2
1981-08-24 00:08:21.930 ,7,0,0.,1.2,3.,1.2,2.,1.2,0.,1.2
1981-08-24 00:08:23.130 ,7,0,0.,1.2,5.,1.2,2.,1.2,0.,1.2
1981-08-24 00:08:24.330 ,7,0,0.,1.2,3.,1.2,9.,1.2,0.,1.2
1981-08-24 00:08:25.530 ,7,0,0.,1.2,6.,1.2,4.,1.2,0.,1.2
1981-08-24 00:08:26.730 ,7,0,0.,1.2,7.,1.2,2.,1.2,0.,1.2
1981-08-24 00:08:27.930 ,7,0,0.,1.2,7.,1.2,8.,1.2,0.,1.2
1981-08-24 00:08:29.130 ,7,0,0.,1.2,6.,1.2,6.,1.2,0.,1.2
1981-08-24 00:08:30.330 ,7,0,0.,1.2,5.,1.2,4.,1.2,0.,1.2
1981-08-24 00:08:31.530 ,7,0,0.,1.2,9.,1.2,5.,1.2,0.,1.2
1981-08-24 00:08:32.730 ,7,0,0.,1.2,3.,1.2,5.,1.2,0.,1.2
1981-08-24 00:08:33.930 ,7,0,0.,1.2,5.,1.2,3.,1.2,0.,1.2
1981-08-24 00:08:35.130 ,7,0,0.,1.2,7.,1.2,3.,1.2,0.,1.2
1981-08-24 00:08:36.330 ,7,0,0.,1.2,1.,1.2,6.,1.2,0.,1.2